,,Stat6,,Stat2,,Stat8,,Stat9,,Stat10,,Wind1,,Wind1,
time,status,PA1M_AVG,status,PR1M_SUM,status,RH1M_AVG,status,SR1M_AVG,status,TA1M_AVG,status,W1dAve1m,status,W1sAve1m,
2007-01-31, 18:18:00,VALID,920.279,VALID,0,VALID,73.5496,VALID,895.752,VALID,23.662,VALID,66,VALID,1.60919,
2007-01-31, 18:19:00,VALID,920.293,VALID,0,VALID,73.5992,VALID,896.401,VALID,23.7843,VALID,45,VALID,1.83663,
2007-01-31, 18:20:00,VALID,920.271,VALID,0,VALID,74.9967,VALID,892.139,VALID,23.6938,VALID,27,VALID,2.23256,
2007-01-31, 18:21:00,VALID,920.291,VALID,0,VALID,74.4079,VALID,896.978,VALID,23.8066,VALID,52,VALID,2.16476,
2007-01-31, 18:22:00,VALID,920.256,VALID,0,VALID,73.7963,VALID,889.982,VALID,23.7778,VALID,65,VALID,2.29948,
2007-01-31, 18:23:00,VALID,920.249,VALID,0,VALID,74.7386,VALID,830.448,VALID,23.781,VALID,357,VALID,2.89589,
2007-01-31, 18:24:00,VALID,920.227,VALID,0,VALID,74.0137,VALID,914.774,VALID,23.7387,VALID,29,VALID,2.61777,
2007-01-31, 18:25:00,VALID,920.225,VALID,0,VALID,74.867,VALID,892.58,VALID,23.6025,VALID,59,VALID,1.88529,
2007-01-31, 18:26:00,VALID,920.245,VALID,0,VALID,73.9514,VALID,894.482,VALID,23.5058,VALID,28,VALID,3.91648,
2007-01-31, 18:27:00,VALID,920.263,VALID,0,VALID,76.2416,VALID,893.752,VALID,23.1958,VALID,31,VALID,3.11198,
2007-01-31, 18:28:00,VALID,920.246,VALID,0,VALID,76.557,VALID,769.775,VALID,23.1444,VALID,24,VALID,2.04961,
2007-01-31, 18:29:00,VALID,920.238,VALID,0,VALID,75.9555,VALID,906.946,VALID,23.2248,VALID,39,VALID,2.5823,
2007-01-31, 18:30:00,VALID,920.242,VALID,0,VALID,76.0852,VALID,910.173,VALID,23.2706,VALID,44,VALID,3.04379,
2007-01-31, 18:31:00,VALID,920.225,VALID,0,VALID,75.5931,VALID,749.228,VALID,23.3787,VALID,9,VALID,2.44569,
2007-01-31, 18:32:00,VALID,920.229,VALID,0,VALID,76.253,VALID,909.935,VALID,23.3822,VALID,21,VALID,2.61961,
2007-01-31, 18:33:00,VALID,920.216,VALID,0,VALID,75.3604,VALID,915.25,VALID,23.3264,VALID,39,VALID,2.70762,
2007-01-31, 18:34:00,VALID,920.216,VALID,0,VALID,75.663,VALID,917.355,VALID,23.2821,VALID,42,VALID,2.50692,
2007-01-31, 18:35:00,VALID,920.203,VALID,0,VALID,76.0725,VALID,915.284,VALID,23.3305,VALID,29,VALID,1.94886,
2007-01-31, 18:36:00,VALID,920.194,VALID,0,VALID,75.4329,VALID,914.978,VALID,23.4236,VALID,20,VALID,3.05996,
2007-01-31, 18:37:00,VALID,920.156,VALID,0,VALID,75.8309,VALID,917.169,VALID,23.4069,VALID,24,VALID,3.05327,
2007-01-31, 18:38:00,VALID,920.172,VALID,0,VALID,75.3388,VALID,917.882,VALID,23.413,VALID,16,VALID,2.72184,
2007-01-31, 18:39:00,VALID,920.162,VALID,0,VALID,76.0598,VALID,793.005,VALID,23.4524,VALID,341,VALID,2.31136,
2007-01-31, 18:40:00,VALID,920.161,VALID,0,VALID,75.6058,VALID,921.363,VALID,23.4327,VALID,16,VALID,3.10156,
2007-01-31, 18:41:00,VALID,920.146,VALID,0,VALID,76.8176,VALID,921.906,VALID,23.3934,VALID,60,VALID,2.08629,
2007-01-31, 18:42:00,VALID,920.132,VALID,0,VALID,76.5391,VALID,805.944,VALID,23.5942,VALID,339,VALID,2.2609,
2007-01-31, 18:43:00,VALID,920.135,VALID,0,VALID,75.8398,VALID,949.993,VALID,23.8685,VALID,56,VALID,1.41868,
2007-01-31, 18:44:00,VALID,920.126,VALID,0,VALID,73.7518,VALID,931.653,VALID,24.1111,VALID,11,VALID,2.74911,
2007-01-31, 18:45:00,VALID,920.168,VALID,0,VALID,74.2426,VALID,921.21,VALID,24.1214,VALID,9,VALID,1.70113,
2007-01-31, 18:46:00,VALID,920.143,VALID,0,VALID,73.0753,VALID,947.751,VALID,24.1017,VALID,24,VALID,3.19404,
2007-01-31, 18:47:00,VALID,920.134,VALID,0,VALID,73.9654,VALID,938.378,VALID,23.9275,VALID,22,VALID,3.03729,
2007-01-31, 18:48:00,VALID,920.138,VALID,0,VALID,74.3088,VALID,927.934,VALID,23.8077,VALID,58,VALID,3.01469,
2007-01-31, 18:49:00,VALID,920.147,VALID,0,VALID,74.2719,VALID,923.757,VALID,23.8018,VALID,65,VALID,2.66655,
2007-01-31, 18:50:00,VALID,920.109,VALID,0,VALID,73.1999,VALID,954.323,VALID,23.7049,VALID,49,VALID,3.73777,
2007-01-31, 18:51:00,VALID,920.089,VALID,0,VALID,74.9713,VALID,993.039,VALID,23.5754,VALID,21,VALID,2.39426,
2007-01-31, 18:52:00,VALID,920.059,VALID,0,VALID,75.8614,VALID,662.745,VALID,23.6782,VALID,31,VALID,1.57068,
2007-01-31, 18:53:00,VALID,920.071,VALID,0,VALID,75.1633,VALID,872.526,VALID,23.9175,VALID,53,VALID,1.66853,
2007-01-31, 18:54:00,VALID,920.048,VALID,0,VALID,73.9158,VALID,969.436,VALID,24.1528,VALID,49,VALID,2.43535,
2007-01-31, 18:55:00,VALID,920.01,VALID,0,VALID,73.5903,VALID,1006.23,VALID,24.3181,VALID,53,VALID,2.10458,
2007-01-31, 18:56:00,VALID,920.03,VALID,0,VALID,72.8337,VALID,1019.99,VALID,24.4926,VALID,65,VALID,2.33479,
2007-01-31, 18:57:00,VALID,920.008,VALID,0,VALID,72.7116,VALID,1019.14,VALID,24.5117,VALID,37,VALID,3.03743,
2007-01-31, 18:58:01,VALID,920.018,VALID,0,VALID,72.3645,VALID,1001.1,VALID,24.4503,VALID,41,VALID,2.25295,
2007-01-31, 18:59:00,VALID,919.964,VALID,0,VALID,71.997,VALID,988.76,VALID,24.3724,VALID,43,VALID,2.30278,
2007-01-31, 19:00:00,VALID,919.963,VALID,0,VALID,73.0982,VALID,983.479,VALID,24.3304,VALID,11,VALID,2.62729,
2007-01-31, 19:01:00,VALID,919.922,VALID,0,VALID,73.1923,VALID,917.729,VALID,24.1437,VALID,340,VALID,2.68312,
2007-01-31, 19:02:00,VALID,919.919,VALID,0,VALID,74.3507,VALID,942.283,VALID,24.1014,VALID,46,VALID,1.80335,
2007-01-31, 19:03:00,VALID,919.917,VALID,0,VALID,74.352,VALID,969.588,VALID,24.3046,VALID,44,VALID,1.58213,
2007-01-31, 19:04:00,VALID,919.909,VALID,0,VALID,72.9952,VALID,901.971,VALID,24.4852,VALID,19,VALID,2.37409,
2007-01-31, 19:05:00,VALID,919.871,VALID,0,VALID,72.5425,VALID,931.959,VALID,24.4752,VALID,2,VALID,1.89971,
2007-01-31, 19:06:00,VALID,919.811,VALID,0,VALID,72.4331,VALID,948.872,VALID,24.5172,VALID,76,VALID,2.6479,
2007-01-31, 19:07:00,VALID,919.816,VALID,0,VALID,72.4509,VALID,952.098,VALID,24.4781,VALID,15,VALID,2.68398,
2007-01-31, 19:08:01,VALID,919.753,VALID,0,VALID,72.3619,VALID,926.865,VALID,24.2626,VALID,46,VALID,3.26883,
2007-01-31, 19:09:00,VALID,919.753,VALID,0,VALID,73.5216,VALID,917.491,VALID,24.0262,VALID,52,VALID,3.21773,
2007-01-31, 19:10:00,VALID,919.716,VALID,0,VALID,73.8726,VALID,916.082,VALID,24.0356,VALID,62,VALID,2.18342,
2007-01-31, 19:11:00,VALID,919.694,VALID,0,VALID,73.9629,VALID,921.448,VALID,24.1774,VALID,10,VALID,1.96366,
2007-01-31, 19:12:00,VALID,919.675,VALID,0,VALID,74.7589,VALID,922.348,VALID,24.3754,VALID,55,VALID,0.980639,
2007-01-31, 19:13:00,VALID,919.67,VALID,0,VALID,73.1045,VALID,917.491,VALID,24.6368,VALID,16,VALID,1.42429,
2007-01-31, 19:14:01,VALID,919.659,VALID,0,VALID,71.412,VALID,925.234,VALID,24.6755,VALID,45,VALID,4.17243,
2007-01-31, 19:15:01,VALID,919.643,VALID,0,VALID,72.2182,VALID,916.252,VALID,24.3557,VALID,39,VALID,2.74551,
2007-01-31, 19:16:00,VALID,919.64,VALID,0,VALID,72.8579,VALID,934.557,VALID,24.2549,VALID,28,VALID,1.83472,
2007-01-31, 19:17:00,VALID,919.617,VALID,0,VALID,73.2101,VALID,932.129,VALID,24.1912,VALID,62,VALID,2.6568,
2007-01-31, 19:18:01,VALID,919.591,VALID,0,VALID,73.0855,VALID,944.389,VALID,24.0611,VALID,24,VALID,3.92374,
2007-01-31, 19:19:00,VALID,919.625,VALID,0,VALID,74.8403,VALID,952.625,VALID,23.8062,VALID,60,VALID,3.29249,
2007-01-31, 19:20:01,VALID,919.583,VALID,0,VALID,74.5351,VALID,940.874,VALID,23.845,VALID,41,VALID,1.89081,
2007-01-31, 19:21:01,VALID,919.565,VALID,0,VALID,74.174,VALID,946.902,VALID,24.0232,VALID,62,VALID,3.05757,
2007-01-31, 19:22:00,VALID,919.574,VALID,0,VALID,73.1274,VALID,949.415,VALID,24.0705,VALID,48,VALID,3.43471,
2007-01-31, 19:23:01,VALID,919.56,VALID,0,VALID,74.2121,VALID,958.5,VALID,24.0711,VALID,60,VALID,2.82813,
2007-01-31, 19:24:00,VALID,919.551,VALID,0,VALID,73.4797,VALID,936.714,VALID,24.1903,VALID,49,VALID,2.69858,
2007-01-31, 19:25:00,VALID,919.534,VALID,0,VALID,73.776,VALID,952.404,VALID,24.2377,VALID,29,VALID,2.3412,
2007-01-31, 19:26:00,VALID,919.531,VALID,0,VALID,73.0778,VALID,970.064,VALID,24.3692,VALID,17,VALID,1.80246,
2007-01-31, 19:27:01,VALID,919.537,VALID,0,VALID,72.5145,VALID,909.137,VALID,24.2632,VALID,31,VALID,3.78646,
2007-01-31, 19:28:00,VALID,919.537,VALID,0,VALID,73.0422,VALID,947.598,VALID,24.0021,VALID,62,VALID,3.67321,
2007-01-31, 19:29:01,VALID,919.534,VALID,0,VALID,72.9125,VALID,942.249,VALID,23.9311,VALID,33,VALID,2.63125,
2007-01-31, 19:30:00,VALID,919.526,VALID,0,VALID,73.5865,VALID,937.902,VALID,23.8732,VALID,56,VALID,3.48285,
2007-01-31, 19:31:00,VALID,919.524,VALID,0,VALID,73.3894,VALID,948.532,VALID,23.8876,VALID,46,VALID,2.20126,
2007-01-31, 19:32:01,VALID,919.518,VALID,0,VALID,73.3512,VALID,892.597,VALID,23.9422,VALID,64,VALID,2.10883,
2007-01-31, 19:33:00,VALID,919.511,VALID,0,VALID,73.3411,VALID,786.518,VALID,23.9516,VALID,24,VALID,2.5794,
2007-01-31, 19:34:01,VALID,919.498,VALID,0,VALID,73.4848,VALID,922.144,VALID,23.9354,VALID,74,VALID,2.4256,
2007-01-31, 19:35:00,VALID,919.472,VALID,0,VALID,73.2635,VALID,932.078,VALID,24.0491,VALID,84,VALID,2.61175,
2007-01-31, 19:36:00,VALID,919.492,VALID,0,VALID,74.0735,VALID,933.674,VALID,24.2458,VALID,38,VALID,1.9565,
2007-01-31, 19:37:00,VALID,919.509,VALID,0,VALID,71.7668,VALID,937.529,VALID,24.3554,VALID,52,VALID,3.31321,
2007-01-31, 19:38:01,VALID,919.464,VALID,0,VALID,72.1305,VALID,945.968,VALID,24.1715,VALID,21,VALID,3.45732,
2007-01-31, 19:39:00,VALID,919.475,VALID,0,VALID,72.8973,VALID,960.86,VALID,23.9736,VALID,27,VALID,2.93859,
2007-01-31, 19:40:00,VALID,919.442,VALID,0,VALID,73.9578,VALID,955.732,VALID,23.7868,VALID,2,VALID,1.95586,
2007-01-31, 19:41:01,VALID,919.407,VALID,0,VALID,74.6343,VALID,958.941,VALID,23.8899,VALID,45,VALID,1.60118,
2007-01-31, 19:42:00,VALID,919.411,VALID,0,VALID,74.6762,VALID,952.03,VALID,24.1577,VALID,10,VALID,1.26181,
2007-01-31, 19:43:01,VALID,919.4,VALID,0,VALID,72.7866,VALID,951.079,VALID,24.3545,VALID,37,VALID,4.57905,
2007-01-31, 19:44:00,VALID,919.391,VALID,0,VALID,73.8332,VALID,967.602,VALID,24.1163,VALID,18,VALID,3.64181,
2007-01-31, 19:45:00,VALID,919.356,VALID,0,VALID,73.9324,VALID,957.43,VALID,24.0191,VALID,22,VALID,2.30583,
2007-01-31, 19:46:00,VALID,919.345,VALID,0,VALID,74.0977,VALID,938.038,VALID,24.0235,VALID,337,VALID,2.75343,
2007-01-31, 19:47:01,VALID,919.339,VALID,0,VALID,74.4219,VALID,967.347,VALID,23.9798,VALID,21,VALID,3.05221,
2007-01-31, 19:48:00,VALID,919.335,VALID,0,VALID,73.2902,VALID,973.256,VALID,23.988,VALID,58,VALID,3.11861,
2007-01-31, 19:49:00,VALID,919.327,VALID,0,VALID,74.1333,VALID,806.827,VALID,23.9954,VALID,17,VALID,2.43732,
2007-01-31, 19:50:00,VALID,919.344,VALID,0,VALID,73.6971,VALID,969.826,VALID,23.9628,VALID,53,VALID,3.45987,
2007-01-31, 19:51:00,VALID,919.298,VALID,0,VALID,73.8612,VALID,730.21,VALID,23.9983,VALID,12,VALID,1.67115,
2007-01-31, 19:52:00,VALID,919.301,VALID,0,VALID,73.5165,VALID,939.6,VALID,24.1595,VALID,29,VALID,2.46615,
2007-01-31, 19:53:01,VALID,919.297,VALID,0,VALID,72.7281,VALID,946.376,VALID,24.1272,VALID,30,VALID,3.42847,
2007-01-31, 19:54:01,VALID,919.283,VALID,0,VALID,73.6017,VALID,971.711,VALID,24.0148,VALID,11,VALID,3.1891,
2007-01-31, 19:55:00,VALID,919.265,VALID,0,VALID,73.7658,VALID,949.093,VALID,23.9792,VALID,50,VALID,2.41606,
2007-01-31, 19:56:00,VALID,919.269,VALID,0,VALID,74.174,VALID,941.485,VALID,24.072,VALID,26,VALID,3.69624,
2007-01-31, 19:57:00,VALID,919.24,VALID,0,VALID,74.1791,VALID,956.802,VALID,24.0638,VALID,29,VALID,2.57865,
2007-01-31, 19:58:00,VALID,919.211,VALID,0,VALID,74.0023,VALID,707.965,VALID,24.0471,VALID,16,VALID,1.9253,
2007-01-31, 19:59:01,VALID,919.224,VALID,0,VALID,73.6831,VALID,587.774,VALID,24.0958,VALID,41,VALID,2.7302,
2007-01-31, 20:00:00,VALID,919.214,VALID,0,VALID,73.9476,VALID,768.875,VALID,24.0203,VALID,35,VALID,2.26387,
2007-01-31, 20:01:01,VALID,919.205,VALID,0,VALID,73.2724,VALID,933.861,VALID,23.9319,VALID,34,VALID,3.80781,
2007-01-31, 20:02:00,VALID,919.178,VALID,0,VALID,74.8428,VALID,969.419,VALID,23.8376,VALID,23,VALID,2.38859,
2007-01-31, 20:03:00,VALID,919.175,VALID,0,VALID,73.837,VALID,928.834,VALID,23.9574,VALID,10,VALID,2.81287,
2007-01-31, 20:04:00,VALID,919.134,VALID,0,VALID,74.1142,VALID,768.756,VALID,23.8667,VALID,43,VALID,2.47882,
2007-01-31, 20:05:00,VALID,919.129,VALID,0,VALID,73.9705,VALID,682.426,VALID,23.8517,VALID,9,VALID,4.22177,
2007-01-31, 20:06:00,VALID,919.091,VALID,0,VALID,74.4257,VALID,628.834,VALID,23.6054,VALID,36,VALID,2.70605,
2007-01-31, 20:07:00,VALID,919.115,VALID,0,VALID,75.6541,VALID,743.947,VALID,23.5869,VALID,26,VALID,3.56455,
2007-01-31, 20:08:00,VALID,919.081,VALID,0,VALID,75.3578,VALID,689.269,VALID,23.5226,VALID,44,VALID,3.58514,
2007-01-31, 20:09:00,VALID,919.07,VALID,0,VALID,75.7558,VALID,827.968,VALID,23.5346,VALID,42,VALID,3.38499,
2007-01-31, 20:10:01,VALID,919.05,VALID,0,VALID,74.909,VALID,959.807,VALID,23.4991,VALID,34,VALID,3.1419,
2007-01-31, 20:11:00,VALID,919.06,VALID,0,VALID,75.4774,VALID,823.57,VALID,23.5692,VALID,55,VALID,2.03239,
2007-01-31, 20:12:00,VALID,919.046,VALID,0,VALID,74.3291,VALID,910.291,VALID,23.7566,VALID,37,VALID,3.19869,
2007-01-31, 20:13:00,VALID,919.043,VALID,0,VALID,74.4944,VALID,888.063,VALID,23.8635,VALID,50,VALID,2.70876,
2007-01-31, 20:14:01,VALID,919.033,VALID,0,VALID,73.1745,VALID,754.985,VALID,24.0679,VALID,53,VALID,2.92243,
2007-01-31, 20:15:00,VALID,919.001,VALID,0,VALID,72.4446,VALID,657.277,VALID,24.0259,VALID,37,VALID,3.0984,
2007-01-31, 20:16:01,VALID,919.003,VALID,0,VALID,73.4301,VALID,633.674,VALID,23.8632,VALID,58,VALID,3.58727,
2007-01-31, 20:17:00,VALID,918.98,VALID,0,VALID,73.5471,VALID,625.166,VALID,23.7533,VALID,43,VALID,3.87443,
2007-01-31, 20:18:00,VALID,918.923,VALID,0,VALID,74.3838,VALID,670.624,VALID,23.6215,VALID,65,VALID,3.27437,
2007-01-31, 20:19:00,VALID,918.927,VALID,0,VALID,74.0786,VALID,714.553,VALID,23.6438,VALID,52,VALID,4.25877,
2007-01-31, 20:20:01,VALID,918.888,VALID,0,VALID,74.1117,VALID,849.687,VALID,23.5824,VALID,63,VALID,3.53087,
2007-01-31, 20:21:01,VALID,918.853,VALID,0,VALID,75.1811,VALID,909.697,VALID,23.647,VALID,37,VALID,2.42515,
2007-01-31, 20:22:01,VALID,918.863,VALID,0,VALID,74.6801,VALID,860.215,VALID,23.8958,VALID,37,VALID,2.97991,
2007-01-31, 20:23:01,VALID,918.841,VALID,0,VALID,73.4631,VALID,688.709,VALID,24.0179,VALID,49,VALID,2.93312,
2007-01-31, 20:24:01,VALID,918.828,VALID,0,VALID,73.3042,VALID,643.794,VALID,24.0534,VALID,42,VALID,2.10099,
2007-01-31, 20:25:00,VALID,918.805,VALID,0,VALID,73.9489,VALID,652.811,VALID,24.0376,VALID,7,VALID,3.29421,
2007-01-31, 20:26:01,VALID,918.785,VALID,0,VALID,74.5758,VALID,647.428,VALID,23.9119,VALID,27,VALID,2.53706,
2007-01-31, 20:27:01,VALID,918.761,VALID,0,VALID,74.1117,VALID,725.132,VALID,23.8958,VALID,45,VALID,2.33884,
2007-01-31, 20:28:00,VALID,918.758,VALID,0,VALID,74.3138,VALID,741.96,VALID,23.9665,VALID,62,VALID,2.807,
2007-01-31, 20:29:01,VALID,918.691,VALID,0,VALID,73.5916,VALID,768.434,VALID,24.089,VALID,71,VALID,2.90701,
2007-01-31, 20:30:00,VALID,918.691,VALID,0,VALID,73.0371,VALID,684.514,VALID,24.2217,VALID,65,VALID,2.77877,
2007-01-31, 20:31:01,VALID,918.677,VALID,0,VALID,74.4041,VALID,624.351,VALID,24.3574,VALID,40,VALID,2.05664,
2007-01-31, 20:32:00,VALID,918.659,VALID,0,VALID,72.6925,VALID,589.167,VALID,24.464,VALID,82,VALID,1.90305,
2007-01-31, 20:33:00,VALID,918.649,VALID,0,VALID,72.4764,VALID,589.473,VALID,24.5961,VALID,65,VALID,2.13053,
2007-01-31, 20:34:00,VALID,918.661,VALID,0,VALID,71.7579,VALID,611.582,VALID,24.6872,VALID,68,VALID,1.87627,
2007-01-31, 20:35:00,VALID,918.623,VALID,0,VALID,71.9423,VALID,627.628,VALID,24.7157,VALID,66,VALID,2.16175,
2007-01-31, 20:36:00,VALID,918.639,VALID,0,VALID,72.1292,VALID,660.673,VALID,24.7741,VALID,47,VALID,2.43415,
2007-01-31, 20:37:00,VALID,918.611,VALID,0,VALID,71.337,VALID,705.961,VALID,24.6992,VALID,111,VALID,1.23121,
2007-01-31, 20:38:01,VALID,918.61,VALID,0,VALID,71.6231,VALID,655.019,VALID,24.8381,VALID,18,VALID,1.63157,
2007-01-31, 20:39:00,VALID,918.599,VALID,0,VALID,71.7045,VALID,603.77,VALID,24.9635,VALID,303,VALID,0.930618,
2007-01-31, 20:40:00,VALID,918.586,VALID,0,VALID,70.7355,VALID,584.939,VALID,25.1351,VALID,63,VALID,2.04383,
2007-01-31, 20:41:01,VALID,918.566,VALID,0,VALID,70.5054,VALID,482.952,VALID,24.9768,VALID,37,VALID,3.09012,
2007-01-31, 20:42:00,VALID,918.552,VALID,0,VALID,71.7503,VALID,571.354,VALID,24.6569,VALID,47,VALID,2.88986,
2007-01-31, 20:43:00,VALID,918.519,VALID,0,VALID,72.2551,VALID,601.597,VALID,24.5371,VALID,48,VALID,2.28488,
2007-01-31, 20:44:01,VALID,918.5,VALID,0,VALID,72.854,VALID,645.696,VALID,24.5274,VALID,47,VALID,2.68617,
2007-01-31, 20:45:00,VALID,918.483,VALID,0,VALID,72.0517,VALID,667.856,VALID,24.5338,VALID,63,VALID,2.23828,
2007-01-31, 20:46:01,VALID,918.464,VALID,0,VALID,72.5285,VALID,633.606,VALID,24.5838,VALID,35,VALID,2.23528,
2007-01-31, 20:47:01,VALID,918.46,VALID,0,VALID,72.2195,VALID,621.838,VALID,24.5063,VALID,42,VALID,3.04124,
2007-01-31, 20:48:01,VALID,918.444,VALID,0,VALID,73.0689,VALID,620.395,VALID,24.3577,VALID,80,VALID,1.70389,
2007-01-31, 20:49:01,VALID,918.425,VALID,0,VALID,73.0842,VALID,593.106,VALID,24.3803,VALID,44,VALID,2.20816,
2007-01-31, 20:50:00,VALID,918.407,VALID,0,VALID,73.3347,VALID,550.705,VALID,24.3357,VALID,26,VALID,2.83575,
2007-01-31, 20:51:01,VALID,918.377,VALID,0,VALID,73.4848,VALID,521.634,VALID,24.2159,VALID,40,VALID,2.29142,
2007-01-31, 20:52:01,VALID,918.359,VALID,0,VALID,73.3487,VALID,515.487,VALID,24.1759,VALID,38,VALID,1.99581,
2007-01-31, 20:53:01,VALID,918.325,VALID,0,VALID,73.7365,VALID,523.808,VALID,24.17,VALID,55,VALID,2.77902,
2007-01-31, 20:54:00,VALID,918.319,VALID,0,VALID,74.1498,VALID,528.715,VALID,24.17,VALID,43,VALID,2.36261,
2007-01-31, 20:55:01,VALID,918.269,VALID,0,VALID,73.7314,VALID,533.809,VALID,24.1726,VALID,45,VALID,2.57508,
2007-01-31, 20:56:01,VALID,918.272,VALID,0,VALID,73.2063,VALID,533.741,VALID,24.1645,VALID,46,VALID,2.27131,
2007-01-31, 20:57:01,VALID,918.269,VALID,0,VALID,73.6106,VALID,513.127,VALID,24.2634,VALID,41,VALID,2.29799,
2007-01-31, 20:58:01,VALID,918.255,VALID,0,VALID,73.5967,VALID,501.529,VALID,24.2317,VALID,43,VALID,2.65898,
2007-01-31, 20:59:01,VALID,918.245,VALID,0,VALID,73.6513,VALID,497.369,VALID,24.1642,VALID,60,VALID,2.46057,
2007-01-31, 21:00:00,VALID,918.248,VALID,0,VALID,73.7047,VALID,496.553,VALID,24.067,VALID,36,VALID,2.92715,
2007-01-31, 21:01:01,VALID,918.246,VALID,0,VALID,75.2523,VALID,490.457,VALID,23.9847,VALID,23,VALID,2.38335,
2007-01-31, 21:02:01,VALID,918.237,VALID,0,VALID,74.9382,VALID,483.546,VALID,24.0073,VALID,30,VALID,2.28658,
2007-01-31, 21:03:01,VALID,918.234,VALID,0,VALID,74.6038,VALID,466.82,VALID,23.9579,VALID,24,VALID,2.20554,
2007-01-31, 21:04:01,VALID,918.211,VALID,0,VALID,74.6775,VALID,444.303,VALID,23.9101,VALID,31,VALID,1.94512,
2007-01-31, 21:05:01,VALID,918.212,VALID,0,VALID,74.8695,VALID,426.389,VALID,23.9195,VALID,52,VALID,1.72275,
2007-01-31, 21:06:00,VALID,918.191,VALID,0,VALID,74.4779,VALID,413.636,VALID,23.9627,VALID,28,VALID,2.64263,
2007-01-31, 21:07:01,VALID,918.197,VALID,0,VALID,74.586,VALID,411.004,VALID,23.9069,VALID,356,VALID,2.31603,
2007-01-31, 21:08:01,VALID,918.175,VALID,0,VALID,75.2523,VALID,417.219,VALID,23.9301,VALID,38,VALID,1.73189,
2007-01-31, 21:09:01,VALID,918.181,VALID,0,VALID,74.2617,VALID,433.538,VALID,23.9424,VALID,34,VALID,2.2941,
2007-01-31, 21:10:01,VALID,918.193,VALID,0,VALID,74.3215,VALID,442.826,VALID,23.9691,VALID,27,VALID,1.9476,
2007-01-31, 21:11:01,VALID,918.172,VALID,0,VALID,74.7818,VALID,443.522,VALID,23.9973,VALID,22,VALID,1.39355,
2007-01-31, 21:12:01,VALID,918.183,VALID,0,VALID,74.1854,VALID,439.888,VALID,24.1565,VALID,52,VALID,1.38338,
2007-01-31, 21:13:01,VALID,918.168,VALID,0,VALID,73.5242,VALID,434.879,VALID,24.2786,VALID,40,VALID,1.25515,
2007-01-31, 21:14:01,VALID,918.181,VALID,0,VALID,74.3062,VALID,432.655,VALID,24.3955,VALID,25,VALID,1.57571,
2007-01-31, 21:15:01,VALID,918.171,VALID,0,VALID,72.6417,VALID,435.066,VALID,24.3858,VALID,42,VALID,2.07351,
2007-01-31, 21:16:01,VALID,918.166,VALID,0,VALID,73.8027,VALID,439.413,VALID,24.2948,VALID,53,VALID,2.32706,
2007-01-31, 21:17:01,VALID,918.194,VALID,0,VALID,73.8433,VALID,445.102,VALID,24.3245,VALID,360,VALID,2.35061,
2007-01-31, 21:18:01,VALID,918.133,VALID,0,VALID,72.9939,VALID,452.505,VALID,24.1565,VALID,323,VALID,2.08296,
2007-01-31, 21:19:01,VALID,918.135,VALID,0,VALID,75.5562,VALID,463.526,VALID,24.1107,VALID,301,VALID,2.02191,
2007-01-31, 21:20:01,VALID,918.135,VALID,0,VALID,76.0788,VALID,487.893,VALID,24.2919,VALID,347,VALID,1.07013,
2007-01-31, 21:21:01,VALID,918.109,VALID,0,VALID,73.5916,VALID,526.864,VALID,24.5148,VALID,355,VALID,1.59896,
2007-01-31, 21:22:01,VALID,918.119,VALID,0,VALID,74.8479,VALID,526.694,VALID,24.5471,VALID,7,VALID,1.64371,
2007-01-31, 21:23:01,VALID,918.093,VALID,0,VALID,74.6813,VALID,508.287,VALID,24.5568,VALID,320,VALID,1.89101,
2007-01-31, 21:24:01,VALID,918.083,VALID,0,VALID,73.5916,VALID,488.471,VALID,24.6149,VALID,342,VALID,1.86646,
2007-01-31, 21:25:01,VALID,918.08,VALID,0,VALID,73.3474,VALID,475.022,VALID,24.6378,VALID,51,VALID,1.62767,
2007-01-31, 21:26:01,VALID,918.066,VALID,0,VALID,73.2381,VALID,467.958,VALID,24.6117,VALID,40,VALID,1.74618,
2007-01-31, 21:27:01,VALID,918.065,VALID,0,VALID,73.0117,VALID,459.994,VALID,24.6214,VALID,45,VALID,1.79383,
2007-01-31, 21:28:01,VALID,918.049,VALID,0,VALID,73.0511,VALID,462.897,VALID,24.5826,VALID,17,VALID,2.04741,
2007-01-31, 21:29:01,VALID,918.047,VALID,0,VALID,72.6913,VALID,485.227,VALID,24.4405,VALID,23,VALID,2.16959,
2007-01-31, 21:30:01,VALID,918.02,VALID,0,VALID,72.8935,VALID,532.858,VALID,24.3177,VALID,44,VALID,2.22457,
2007-01-31, 21:31:01,VALID,918.011,VALID,0,VALID,73.9464,VALID,594.261,VALID,24.3862,VALID,49,VALID,1.48757,
2007-01-31, 21:32:01,VALID,917.999,VALID,0,VALID,73.6348,VALID,550.128,VALID,24.5651,VALID,64,VALID,1.47351,
2007-01-31, 21:33:01,VALID,918.005,VALID,0,VALID,73.8968,VALID,514.587,VALID,24.7328,VALID,28,VALID,1.83249,
2007-01-31, 21:34:01,VALID,918.002,VALID,0,VALID,73.3881,VALID,510.206,VALID,24.7425,VALID,31,VALID,2.13453,
2007-01-31, 21:35:01,VALID,917.991,VALID,0,VALID,73.7505,VALID,557.667,VALID,24.6261,VALID,43,VALID,2.5333,
2007-01-31, 21:36:01,VALID,917.976,VALID,0,VALID,72.2755,VALID,638.887,VALID,24.5292,VALID,50,VALID,2.30487,
2007-01-31, 21:37:00,VALID,917.952,VALID,0,VALID,73.4224,VALID,704.093,VALID,24.5005,VALID,62,VALID,2.05251,
2007-01-31, 21:38:00,VALID,917.924,VALID,0,VALID,72.7981,VALID,709.086,VALID,24.6352,VALID,29,VALID,1.38951,
2007-01-31, 21:39:00,VALID,917.919,VALID,0,VALID,73.2508,VALID,567.89,VALID,24.7741,VALID,26,VALID,1.58093,
2007-01-31, 21:40:00,VALID,917.897,VALID,0,VALID,73.4797,VALID,494.584,VALID,24.8071,VALID,17,VALID,2.31094,
2007-01-31, 21:41:00,VALID,917.885,VALID,0,VALID,72.5692,VALID,470.895,VALID,24.6875,VALID,42,VALID,2.33278,
2007-01-31, 21:42:00,VALID,917.881,VALID,0,VALID,73.1999,VALID,464.018,VALID,24.6032,VALID,35,VALID,1.77017,
2007-01-31, 21:43:00,VALID,917.881,VALID,0,VALID,73.4275,VALID,421.379,VALID,24.6358,VALID,37,VALID,2.46132,
2007-01-31, 21:44:00,VALID,917.876,VALID,0,VALID,73.7378,VALID,487.401,VALID,24.5477,VALID,41,VALID,1.29187,
2007-01-31, 21:45:00,VALID,917.87,VALID,0,VALID,73.3372,VALID,771.524,VALID,24.6675,VALID,360,VALID,1.36254,
2007-01-31, 21:46:00,VALID,917.852,VALID,0,VALID,72.2767,VALID,798.133,VALID,24.873,VALID,81,VALID,1.01105,
2007-01-31, 21:47:00,VALID,917.859,VALID,0,VALID,71.6142,VALID,815.487,VALID,25.1603,VALID,17,VALID,1.32571,
2007-01-31, 21:48:00,VALID,917.861,VALID,0,VALID,70.4456,VALID,845.798,VALID,25.4282,VALID,28,VALID,1.66388,
2007-01-31, 21:49:00,VALID,917.857,VALID,0,VALID,70.4037,VALID,907.727,VALID,25.5093,VALID,351,VALID,1.78069,
2007-01-31, 21:50:00,VALID,917.84,VALID,0,VALID,69.8696,VALID,487.248,VALID,25.7128,VALID,43,VALID,1.20092,
2007-01-31, 21:51:00,VALID,917.828,VALID,0,VALID,69.4614,VALID,395.008,VALID,25.8844,VALID,351,VALID,1.32849,
2007-01-31, 21:52:00,VALID,917.843,VALID,0,VALID,70.3477,VALID,590.406,VALID,25.7836,VALID,358,VALID,1.35324,
2007-01-31, 21:53:00,VALID,917.838,VALID,0,VALID,69.8543,VALID,764.239,VALID,25.7351,VALID,346,VALID,1.63986,
2007-01-31, 21:54:00,VALID,917.83,VALID,0,VALID,68.7302,VALID,810.529,VALID,25.7772,VALID,357,VALID,1.49709,